GSAT-16

Last updated on Sun Jun 21 2026 00:03:06 GMT+0000 (Coordinated Universal Time)

1 40332U 14078A 26171.18900372 .00000080 00000+0 00000+0 0 9995 2 40332 0.0460 88.2765 0007756 358.9794 304.2464 1.00269918 42139
UTC large
Height (km)
Speed (km/s)
/
Latitude / Longitude
Inclination (degrees)
Orbital Period (minutes)
Azimuth
Elevation
Range (km)
Doppler Factor

Next 0 passes for location: London (51.5072 / 0.1276)

No passes found over London.
GSAT-16